Weather History for Leadville, CO

Change the Weather History Date:

Wednesday, November 23, 2011

  Actual Average Record
Temperature  
Mean Temperature 30 °F -  
Max Temperature 48 °F 33 °F 49 °F (1988)
Min Temperature 12 °F 9 °F -12 °F (1991)
Degree Days  
Heating Degree Days 35 44  
Month to date heating degree days 938 900  
Since 1 July heating degree days 2890 3089  
Cooling Degree Days 0 0  
Month to date cooling degree days 0 0  
Year to date cooling degree days 0 0  
Moisture  
Dew Point 4 °F    
Average Humidity 47    
Maximum Humidity 80    
Minimum Humidity 13    
Precipitation  
Precipitation 0.00 in 0.03 in 0.40 in (1977)
Month to date precipitation 0.60 0.61  
Year to date precipitation 14.49 11.55  
Sea Level Pressure  
Sea Level Pressure 30.24 in    
Wind  
Wind Speed 4 mph (NNE)    
Max Wind Speed 16 mph    
Max Gust Speed 21 mph    
Visibility 10 miles    
Events      
T = Trace of Precipitation, MM = Missing Value Source: NWS Daily Summary

Daily Weather History Graph

Daily Weather History Graph

Search for Another Location

Airport:

Trip Planner

Search our weather history database for the weather conditions in past years. The results will help you decide how hot, cold, wet, or windy it might be!

Date:

Astronomy

Nov. 23, 2011 Rise Set
Actual Time 6:57 AM MST 4:45 PM MST
Civil Twilight 6:28 AM MST 5:14 PM MST
Nautical Twilight 5:55 AM MST 5:47 PM MST
Astronomical Twilight 5:23 AM MST 6:19 PM MST
Moon 5:05 AM MST (11/23) 3:29 PM MST (11/23)
Length of Visible Light 10h 46m
Length of Day
9h 48m
Waning Crescent, 3% of the Moon is Illuminated
Nov 23
Waning Crescent
Nov 24
New
Dec 2
First Quarter
Dec 10
Full
Dec 17
Last Quarter

Hourly Weather History & Observations

Time (MST) Temp. Windchill Dew Point Humidity Pressure Visibility Wind Dir Wind Speed Gust Speed Precip Events Conditions
12:53 AM 16.0 °F 7.4 °F 10.9 °F 81% 30.32 in 10.0 mi East 5.8 mph - N/A   Clear
1:53 AM 17.1 °F 2.5 °F 10.0 °F 74% 30.29 in 10.0 mi ENE 15.0 mph - N/A   Clear
2:53 AM 18.0 °F - 10.0 °F 71% 30.28 in 10.0 mi Calm Calm - N/A   Clear
3:53 AM 15.1 °F 7.7 °F 8.1 °F 74% 30.31 in 10.0 mi Variable 4.6 mph - N/A   Clear
4:53 AM 12.9 °F 6.9 °F 6.1 °F 74% 30.34 in 10.0 mi North 3.5 mph - N/A   Clear
5:53 AM 15.1 °F 9.4 °F 6.1 °F 68% 30.35 in 10.0 mi NW 3.5 mph - N/A   Clear
6:53 AM 12.9 °F 5.2 °F 5.0 °F 71% 30.38 in 10.0 mi NE 4.6 mph - N/A   Clear
7:53 AM 21.0 °F - 3.9 °F 48% 30.36 in 10.0 mi Calm Calm - N/A   Clear
8:53 AM 25.0 °F - 8.1 °F 49% 30.35 in 10.0 mi Calm Calm - N/A   Clear
9:53 AM 33.1 °F - 10.0 °F 38% 30.29 in 10.0 mi Calm Calm - N/A   Clear
10:53 AM 39.9 °F - 9.0 °F 28% 30.22 in 10.0 mi Calm Calm - N/A   Clear
11:53 AM 45.0 °F - 10.0 °F 24% 30.19 in 10.0 mi Calm Calm - N/A   Clear
12:53 PM 46.9 °F - -2.9 °F 13% 30.14 in 10.0 mi NNW 6.9 mph - N/A   Clear
1:53 PM 46.9 °F - -2.0 °F 13% 30.12 in 10.0 mi North 6.9 mph - N/A   Clear
2:53 PM 46.0 °F 41.0 °F -2.0 °F 14% 30.11 in 10.0 mi NNW 10.4 mph - N/A   Clear
3:53 PM 45.0 °F 41.8 °F -0.9 °F 15% 30.14 in 10.0 mi NNW 5.8 mph - N/A   Clear
4:53 PM 37.0 °F 33.3 °F -4.0 °F 17% 30.20 in 10.0 mi East 4.6 mph - N/A   Clear
5:53 PM 28.0 °F 22.8 °F 1.0 °F 31% 30.25 in 10.0 mi ESE 4.6 mph - N/A   Clear
6:53 PM 27.0 °F - -0.0 °F 31% 30.29 in 10.0 mi Calm Calm - N/A   Clear
7:53 PM 25.0 °F - -0.0 °F 34% 30.25 in 10.0 mi Calm Calm - N/A   Clear
8:53 PM 24.1 °F - 1.9 °F 38% 30.22 in 10.0 mi Calm Calm - N/A   Clear
9:53 PM 23.0 °F 18.4 °F 3.0 °F 42% 30.16 in 10.0 mi Variable 3.5 mph - N/A   Clear
10:53 PM 19.9 °F 14.9 °F 3.9 °F 50% 30.11 in 10.0 mi East 3.5 mph - N/A   Clear
11:53 PM 24.1 °F - 1.9 °F 38% 30.03 in 10.0 mi Calm Calm - N/A   Clear